Regional Weather Roundup
Issued by NWS Upton, NY

Current Version | Previous Version | Text Only | Print | Product List | Glossary Off
Versions: 1 2 3 4 5 6 7 8 9 10 11 12 13 14 15 16 17 18 19 20 21 22 23 24 25 26 27

000
ASUS41 KOKX 262309
RWROKX

REGIONAL WEATHER ROUNDUP
NATIONAL WEATHER SERVICE NEW YORK NY
700 PM EDT WED APR 26 2017

NOTE: "FAIR" INDICATES FEW OR NO CLOUDS BELOW 12,000 FEET WITH NO
SIGNIFICANT WEATHER AND/OR OBSTRUCTIONS TO VISIBILITY.

NYZ071-072-176-178-NJZ106-104-270000-
NEW YORK CITY METRO AREA

CITY           SKY/WX    TMP DP  RH WIND       PRES   REMARKS
Central Park   CLOUDY    59  57  93 CALM      29.82R FOG
Wall St Helipt CLOUDY    58  56  93 CALM      29.81R FOG
Bronx Bot Gard   N/A     57  55  94 SE1       29.80R
LaGuardia APRT CLOUDY    58  55  90 NW5       29.79R FOG
Kennedy INTL   CLOUDY    62  57  83 N7        29.80R
Breezy Point     N/A     55 N/A N/A W1          N/A
Newark/Liberty CLOUDY    61  57  87 E3        29.79R
Teterboro      CLOUDY    61  58  90 CALM      29.78R
$$

NYZ177-179-078>081-270000-
LONG ISLAND NEW YORK

CITY           SKY/WX    TMP DP  RH WIND       PRES   REMARKS
Jones Beach      N/A     55 N/A N/A SW3         N/A
Matinecock PT    N/A     54 N/A N/A NW9         N/A
Farmingdale    CLOUDY    61  57  87 NE5       29.78R
MacArthur/ISP  CLOUDY    62  57  83 NE7       29.77R
Shirley        CLOUDY    62  58  86 CALM      29.78R
Mt Sinai Harb    N/A    N/A N/A N/A MISG        N/A
Westhampton    CLOUDY    58  55  90 NE6       29.79R
East Hampton   CLOUDY    56  55  95 NE3       29.77R
Montauk          N/A     55  55 100 E6        29.79R
$$

NYZ052-065-067-270000-
HUDSON VALLEY

CITY           SKY/WX    TMP DP  RH WIND       PRES   REMARKS
White Plains   CLOUDY    59  55  87 W5        29.79R
Larchmont Harb   N/A     57 N/A N/A W7          N/A
Croton O-T Hud   N/A     59 N/A N/A NW5         N/A
Newburgh       CLOUDY    59  59 100 CALM      29.81R FOG
Montgomery     CLOUDY    61  56  83 CALM      29.79R
Poughkeepsie   CLOUDY    60  56  86 CALM      29.79R
Albany         MOCLDY    67  56  67 W6        29.77R
$$

NJZ001-105-106-008-010-013-015-019>022-104-270000-
NEW JERSEY

CITY           SKY/WX    TMP DP  RH WIND       PRES   REMARKS
Newark/Liberty CLOUDY    61  57  87 E3        29.79R
Teterboro      CLOUDY    61  58  90 CALM      29.78R
Caldwell       CLOUDY    61  56  83 NW3       29.80R
Somerville     CLOUDY    64  57  78 NE3       29.77S
Linden         CLOUDY    61  57  87 CALM      29.80R
Sussex         CLOUDY    61  56  83 CALM      29.80S
Andover          N/A     60  55  83 NE5       29.79S
Trenton        CLOUDY    64  58  80 CALM      29.78S
Millville      CLOUDY    63  60  90 W3        29.79R
Atlantic City  CLOUDY    59  55  87 S5        29.79S
Wrightstown    NOT AVBL
Toms River     CLOUDY    62  58  86 NW3       29.80R
Belmar         CLOUDY    59  56  89 NW8       29.81R
$$

PAZ047>061-062-071-270000-
EASTERN PENNSYLVANIA

CITY           SKY/WX    TMP DP  RH WIND       PRES   REMARKS
Philadelphia   CLOUDY    63  56  78 S5        29.79S
Allentown      MOCLDY    70  56  61 E6        29.76F
Scranton       CLEAR     72  56  57 VRB5      29.74F
$$

CTZ002-004>006-009-010-012-RIZ004-006-007-MAZ004-011-015-270000-
SOUTHERN NEW ENGLAND
 IN CT

CITY           SKY/WX    TMP DP  RH WIND       PRES   REMARKS
Bradley INTL   CLOUDY    60  55  83 N8        29.79S
Hartford       CLOUDY    61  56  83 N8        29.78R
Danbury        CLOUDY    60  56  86 NE3       29.80R
Wtrbury/Oxford CLOUDY    59  52  77 NE8       29.80R
Bridgeport     CLOUDY    56  53  90 E5        29.78R
Meriden        CLOUDY    63  56  78 N5        29.78S
New Haven      CLOUDY    55  52  89 S3        29.77R
Chester        CLOUDY    61  59  94 N7        29.78R
Groton         CLOUDY    60  58  92 SE7       29.77R
Wilimantic     CLOUDY    62  59  90 NE7       29.78S

 IN RI

CITY           SKY/WX    TMP DP  RH WIND       PRES   REMARKS
Providence     CLOUDY    61  60  97 NE5       29.79R
Block Island   FOG       52  52 100 E5        29.79R VSB 3/4
Westerly       CLOUDY    60  59  96 NE5       29.78R
 IN MA

CITY           SKY/WX    TMP DP  RH WIND       PRES   REMARKS
Boston         FOG       50  50 100 NE8       29.82R VSB 1/8
Worcester      FOG       54  52  93 NE10G17   29.80F VSB<1/4
Westfield      CLOUDY    59  56  89 N8        29.79S
Provincetown   CLOUDY    54  54 100 SE10G18   29.83S FOG
Nantucket      FOG       52  51  97 SE8       29.80R VSB<1/4
$$

ANZ330-335-338-340-345-350-353-355-270000-
COASTAL MARINE OBSERVATIONS


STATION/POSITION TIME  SKY/WX   TEMP    WIND        PRES    VSBY  WAVE
                                AIR SEA DIR/SP/G                  HT/PER
                 (UTC)          (F)     (DEG/KT/KT) (MB)    (MI)  (FT/S)
NY HARB ENTRANCE 2150            52 49   70/  6/  8 1008.0          7/11
20 S FIRE ISLAND 2250            49 48   70/  6/  8 1007.7          8/11
GREAT SOUTH BAY  2230            54 57  160/  6/  8   N/A
23 SSW MONTAUK P 2150            48 46              1007.8          8/11
15 E BARNEGAT LI 2230               51                N/A           7/11
HUDSON CANYON    2150            54 52  160/  2/  4 1007.5          8/11
KINGS POINT      2230            54 50     CALM     1008.6
EXECUTION ROCKS  NOT AVBL
CENTRAL LI SOUND 2200            49      90/  6/  6   N/A           1
EASTERN LI SOUND NOT AVBL
ROBBINS REEF     2230            59        CALM     1009.1
$$


>>>>>>>>>>>>>>>>>>>>>>>>>>>> KEY <<<<<<<<<<<<<<<<<<<<<<<<<<<
>                                                          <
>     SKY/WX - Sky Condition/Present Weather               <
>     TMP    - Temperature in Fahrenheit                   <
>     DP     - Dew Point in Fahrenheit                     <
>     RH     - Relative Humidity in Percent                <
>     WIND   - Direction (from) and Speed in MPH           <
>     PRES   - Mean Sea Level Pressure (inches of Hg)      <
>     WCI    - Wind Chill Index                            <
>     VSB    - VISIBILITY IN MILES                         <
>     HX     - HEAT INDEX                                  <
>     TC     - TEMPERATURE IN CELSIUS                      <
>     VRB    - VARIABLE WIND DIRECTION                     <
>                                                          <
>>>>>>>>>>>>>>>>>>>>>>>>>>>> KEY <<<<<<<<<<<<<<<<<<<<<<<<<<<




USA.gov is the U.S. government's official web portal to all federal, state and local government web resources and services.